Chariton, IA

2:42 PM CDT on June 26, 2017 (GMT -0500)
Chariton Municipal

Weather History for KCNC - April, 2014

Change the Weather History Date:

Wednesday, April 16, 2014

  Actual Average Record
Temperature  
Mean Temperature 50 °F -  
Max Temperature 62 °F 65 °F 86 °F (1964)
Min Temperature 39 °F 41 °F 20 °F (1962)
Degree Days  
Heating Degree Days 14    
Moisture  
Dew Point 31 °F    
Average Humidity 50    
Maximum Humidity 81    
Minimum Humidity 34    
Precipitation  
Precipitation 0.00 in - - ()
Sea Level Pressure  
Sea Level Pressure 29.90 in    
Wind  
Wind Speed 20 mph (South)    
Max Wind Speed 38 mph    
Max Gust Speed 52 mph    
Visibility 10 miles    
Events      
Averages and records for this station are not official NWS values.
T = Trace of Precipitation, MM = Missing Value Source: NWS Daily Summary

Daily Weather History Graph

Daily Weather History Graph

Search for Another Location

Airport or City:

Trip Planner

Search our weather history database for the weather conditions in past years. The results will help you decide how hot, cold, wet, or windy it might be!

Date:

Astronomy

Apr. 16, 2014 Rise Set
Actual Time 6:32 AM CDT 7:54 PM CDT
Civil Twilight 6:04 AM CDT 8:23 PM CDT
Nautical Twilight 5:29 AM CDT 8:57 PM CDT
Astronomical Twilight 4:53 AM CDT 9:33 PM CDT
Moon 9:39 PM CDT (4/16) 7:20 AM CDT (4/16)
Length of Visible Light 14h 18m
Length of Day
13h 21m
Full, 98% of the Moon is Illuminated
Apr 16
Full
Apr 22
Last Quarter
Apr 29
New
May 6
First Quarter
May 14
Full

Hourly Weather History & Observations

Time (CDT) Temp. Windchill Dew Point Humidity Pressure Visibility Wind Dir Wind Speed Gust Speed Precip Events Conditions
12:15 AM 39.2 °F 31.2 °F 28.4 °F 65% 30.00 in 10.0 mi SSE 13.8 mph - N/A   Overcast
12:35 AM 39.2 °F 31.6 °F 28.4 °F 65% 30.00 in 10.0 mi SSE 12.7 mph 19.6 mph N/A   Overcast
12:55 AM 39.2 °F 30.8 °F 28.4 °F 65% 29.99 in 10.0 mi SSE 15.0 mph - N/A   Overcast
1:15 AM 39.2 °F 30.5 °F 28.4 °F 65% 29.99 in 10.0 mi SSE 16.1 mph 23.0 mph N/A   Overcast
1:35 AM 39.2 °F 30.5 °F 28.4 °F 65% 29.98 in 10.0 mi SSE 16.1 mph - N/A   Overcast
1:55 AM 39.2 °F 30.5 °F 28.4 °F 65% 29.97 in 10.0 mi SSE 16.1 mph 24.2 mph N/A   Overcast
2:15 AM 39.2 °F 30.5 °F 28.4 °F 65% 29.96 in 10.0 mi SSE 16.1 mph - N/A   Overcast
2:35 AM 39.2 °F 30.2 °F 28.4 °F 65% 29.96 in 10.0 mi SSE 17.3 mph 23.0 mph N/A   Overcast
2:55 AM 39.2 °F 30.8 °F 26.6 °F 61% 29.96 in 10.0 mi SSE 15.0 mph 21.9 mph N/A   Overcast
3:15 AM 39.2 °F 29.8 °F 26.6 °F 61% 29.95 in 10.0 mi SSE 18.4 mph - N/A   Overcast
3:35 AM 39.2 °F 29.8 °F 26.6 °F 61% 29.95 in 10.0 mi SSE 18.4 mph 24.2 mph N/A   Overcast
3:55 AM 41.0 °F 32.5 °F 26.6 °F 57% 29.95 in 10.0 mi SSE 17.3 mph 23.0 mph N/A   Overcast
4:15 AM 41.0 °F 32.5 °F 26.6 °F 57% 29.95 in 10.0 mi South 17.3 mph - N/A   Overcast
4:35 AM 39.2 °F 30.5 °F 26.6 °F 61% 29.95 in 10.0 mi South 16.1 mph 23.0 mph N/A   Overcast
4:55 AM 39.2 °F 29.8 °F 26.6 °F 61% 29.94 in 10.0 mi SSE 18.4 mph - N/A   Overcast
5:15 AM 39.2 °F 30.2 °F 26.6 °F 61% 29.94 in 10.0 mi South 17.3 mph 23.0 mph N/A   Overcast
5:35 AM 39.2 °F 30.2 °F 26.6 °F 61% 29.93 in 10.0 mi SSE 17.3 mph 24.2 mph N/A   Overcast
5:55 AM 39.2 °F 30.5 °F 26.6 °F 61% 29.93 in 10.0 mi South 16.1 mph - N/A   Overcast
6:15 AM 39.2 °F 29.8 °F 26.6 °F 61% 29.93 in 10.0 mi South 18.4 mph - N/A   Overcast
6:35 AM 39.2 °F 29.8 °F 26.6 °F 61% 29.93 in 10.0 mi South 18.4 mph - N/A   Partly Cloudy
6:55 AM 41.0 °F 32.8 °F 26.6 °F 57% 29.94 in 10.0 mi South 16.1 mph 21.9 mph N/A   Clear
7:15 AM 41.0 °F 31.9 °F 26.6 °F 57% 29.94 in 10.0 mi South 19.6 mph - N/A   Clear
7:35 AM 42.8 °F 34.0 °F 26.6 °F 53% 29.94 in 10.0 mi South 20.7 mph 31.1 mph N/A   Clear
7:55 AM 42.8 °F 34.8 °F 26.6 °F 53% 29.94 in 10.0 mi South 17.3 mph 26.5 mph N/A   Clear
8:15 AM 44.6 °F 36.4 °F 28.4 °F 53% 29.94 in 10.0 mi South 20.7 mph 27.6 mph N/A   Clear
8:35 AM 44.6 °F 36.4 °F 28.4 °F 53% 29.94 in 10.0 mi South 20.7 mph 27.6 mph N/A   Clear
8:55 AM 48.2 °F - 30.2 °F 50% 29.93 in 10.0 mi South 24.2 mph 39.1 mph N/A   Clear
9:15 AM 48.2 °F - 28.4 °F 46% 29.92 in 10.0 mi South 29.9 mph 39.1 mph N/A   Clear
9:35 AM 50.0 °F - 28.4 °F 43% 29.93 in 10.0 mi South 25.3 mph 38.0 mph N/A   Clear
9:55 AM 50.0 °F - 30.2 °F 47% 29.93 in 10.0 mi South 23.0 mph 36.8 mph N/A   Clear
10:15 AM 51.8 °F - 32.0 °F 47% 29.92 in 10.0 mi South 27.6 mph 38.0 mph N/A   Clear
10:35 AM 53.6 °F - 32.0 °F 44% 29.91 in 10.0 mi South 32.2 mph 40.3 mph N/A   Clear
10:55 AM 53.6 °F - 32.0 °F 44% 29.92 in 10.0 mi South 27.6 mph 41.4 mph N/A   Clear
11:15 AM 53.6 °F - 30.2 °F 41% 29.91 in 10.0 mi South 31.1 mph 40.3 mph N/A   Clear
11:35 AM 53.6 °F - 32.0 °F 44% 29.91 in 10.0 mi South 27.6 mph 36.8 mph N/A   Clear
11:55 AM 57.2 °F - 33.8 °F 41% 29.89 in 10.0 mi South 29.9 mph 40.3 mph N/A   Clear
12:15 PM 57.2 °F - 33.8 °F 41% 29.89 in 10.0 mi South 31.1 mph 42.6 mph N/A   Clear
12:35 PM 57.2 °F - 32.0 °F 38% 29.87 in 10.0 mi South 36.8 mph 44.9 mph N/A   Clear
1:15 PM 59.0 °F - 32.0 °F 36% 29.84 in 10.0 mi South 35.7 mph 48.3 mph N/A   Clear
1:35 PM 59.0 °F - 30.2 °F 34% 29.83 in 10.0 mi South 38.0 mph 51.8 mph N/A   Clear
1:55 PM 59.0 °F - 33.8 °F 39% 29.83 in 10.0 mi South 29.9 mph 36.8 mph N/A   Clear
2:15 PM 60.8 °F - 32.0 °F 34% 29.81 in 10.0 mi South 34.5 mph 46.0 mph N/A   Clear
2:35 PM 60.8 °F - 32.0 °F 34% 29.81 in 10.0 mi South 35.7 mph 44.9 mph N/A   Clear
2:55 PM 60.8 °F - 33.8 °F 36% 29.81 in 10.0 mi South 31.1 mph - N/A   Clear
3:15 PM 60.8 °F - 33.8 °F 36% 29.81 in 10.0 mi South 31.1 mph 40.3 mph N/A   Clear
3:35 PM 60.8 °F - 33.8 °F 36% 29.81 in 10.0 mi South 29.9 mph 43.7 mph N/A   Clear
3:55 PM 62.6 °F - 33.8 °F 34% 29.81 in 10.0 mi South 29.9 mph 38.0 mph N/A   Clear
4:15 PM 62.6 °F - 33.8 °F 34% 29.82 in 10.0 mi SSW 29.9 mph 46.0 mph N/A   Partly Cloudy
4:35 PM 60.8 °F - 33.8 °F 36% 29.82 in 10.0 mi South 25.3 mph 40.3 mph N/A   Mostly Cloudy
4:55 PM 60.8 °F - 33.8 °F 36% 29.82 in 10.0 mi South 25.3 mph 40.3 mph N/A   Overcast
5:15 PM 60.8 °F - 33.8 °F 36% 29.81 in 10.0 mi SSW 27.6 mph 38.0 mph N/A   Overcast
5:35 PM 60.8 °F - 35.6 °F 39% 29.81 in 10.0 mi South 24.2 mph 32.2 mph N/A   Mostly Cloudy
5:55 PM 60.8 °F - 35.6 °F 39% 29.81 in 10.0 mi South 23.0 mph 31.1 mph N/A   Mostly Cloudy
6:15 PM 60.8 °F - 35.6 °F 39% 29.81 in 10.0 mi South 26.5 mph 33.4 mph N/A   Scattered Clouds
6:35 PM 59.0 °F - 35.6 °F 42% 29.81 in 10.0 mi South 23.0 mph 29.9 mph N/A   Partly Cloudy
6:55 PM 60.8 °F - 33.8 °F 36% 29.81 in 10.0 mi South 20.7 mph 28.8 mph N/A   Partly Cloudy
7:15 PM 60.8 °F - 33.8 °F 36% 29.81 in 10.0 mi South 19.6 mph 25.3 mph N/A   Clear
7:35 PM 59.0 °F - 35.6 °F 42% 29.81 in 10.0 mi South 17.3 mph - N/A   Clear
7:55 PM 57.2 °F - 35.6 °F 44% 29.82 in 10.0 mi South 16.1 mph - N/A   Clear
8:15 PM 57.2 °F - 35.6 °F 44% 29.82 in 10.0 mi South 13.8 mph 20.7 mph N/A   Mostly Cloudy
8:35 PM 57.2 °F - 35.6 °F 44% 29.83 in 10.0 mi South 16.1 mph - N/A   Overcast
8:55 PM 57.2 °F - 35.6 °F 44% 29.86 in 10.0 mi SSW 15.0 mph - N/A   Overcast
9:15 PM 55.4 °F - 35.6 °F 47% 29.86 in 10.0 mi South 15.0 mph - N/A   Overcast
9:35 PM 55.4 °F - 35.6 °F 47% 29.89 in 10.0 mi West 16.1 mph - N/A   Mostly Cloudy
9:55 PM 51.8 °F - 37.4 °F 58% 29.90 in 10.0 mi West 12.7 mph 19.6 mph N/A   Mostly Cloudy
10:15 PM 50.0 °F - 35.6 °F 58% 29.91 in 10.0 mi West 17.3 mph - N/A   Overcast
10:35 PM 48.2 °F - 35.6 °F 62% 29.93 in 10.0 mi West 18.4 mph - N/A   Overcast
10:55 PM 46.4 °F 39.0 °F 35.6 °F 66% 29.94 in 10.0 mi West 19.6 mph 29.9 mph N/A   Overcast
11:15 PM 44.6 °F 36.9 °F 35.6 °F 71% 29.96 in 10.0 mi West 18.4 mph 27.6 mph N/A   Overcast
11:35 PM 42.8 °F 35.4 °F 35.6 °F 76% 29.97 in 10.0 mi West 15.0 mph 21.9 mph N/A   Overcast
11:55 PM 42.8 °F 34.5 °F 37.4 °F 81% 29.98 in 10.0 mi West 18.4 mph 27.6 mph N/A   Overcast